Weather History for Philip, SD

Change the Weather History Date:

Friday, February 15, 2013

  Actual Average Record
Temperature  
Mean Temperature 26 °F 26 °F  
Max Temperature 34 °F 39 °F 67 °F (2011)
Min Temperature 18 °F 13 °F -27 °F (2007)
Degree Days  
Heating Degree Days 39 39  
Month to date heating degree days 493 610  
Since 1 July heating degree days 4528 4875  
Cooling Degree Days 0 0  
Month to date cooling degree days 0 0  
Year to date cooling degree days 0 0  
Moisture  
Dew Point 13 °F    
Average Humidity 65    
Maximum Humidity 92    
Minimum Humidity 38    
Precipitation  
Precipitation 0.00 in 0.01 in 0.17 in (1987)
Month to date precipitation 0.09 0.18  
Year to date precipitation 0.62 0.48  
Sea Level Pressure  
Sea Level Pressure 30.36 in    
Wind  
Wind Speed 9 mph (NW)    
Max Wind Speed 21 mph    
Max Gust Speed 28 mph    
Visibility 10 miles    
Events      
T = Trace of Precipitation, MM = Missing Value Source: NWS Daily Summary

Daily Weather History Graph

Daily Weather History Graph

Search for Another Location

Airport:

Trip Planner

Search our weather history database for the weather conditions in past years. The results will help you decide how hot, cold, wet, or windy it might be!

Date:

Astronomy

Feb. 15, 2013 Rise Set
Actual Time 6:45 AM MST 5:16 PM MST
Civil Twilight 6:15 AM MST 5:46 PM MST
Nautical Twilight 5:41 AM MST 6:19 PM MST
Astronomical Twilight 5:08 AM MST 6:53 PM MST
Moon 9:08 AM MST (2/15) 11:34 PM MST (2/15)
Length of Visible Light 11h 30m
Length of Day
10h 31m
Waxing Crescent, 31% of the Moon is Illuminated
Feb 15
Waxing Crescent
Feb 17
First Quarter
Feb 25
Full
Mar 4
Last Quarter
Mar 11
New

Hourly Weather History & Observations

Time (MST) Temp. Windchill Dew Point Humidity Pressure Visibility Wind Dir Wind Speed Gust Speed Precip Events Conditions
12:55 AM 19.9 °F 9.3 °F 16.0 °F 85% 30.36 in 10.0 mi WNW 9.2 mph - N/A   Clear
1:55 AM 19.0 °F 12.3 °F 14.0 °F 81% 30.37 in 10.0 mi West 4.6 mph - N/A   Mostly Cloudy
2:55 AM 18.0 °F 8.7 °F 12.9 °F 81% 30.36 in 10.0 mi WSW 6.9 mph - N/A   Scattered Clouds
3:55 AM 19.9 °F 9.3 °F 15.1 °F 81% 30.35 in 10.0 mi WNW 9.2 mph - N/A   Mostly Cloudy
4:55 AM 19.9 °F 10.1 °F 14.0 °F 78% 30.36 in 10.0 mi WNW 8.1 mph - N/A   Overcast
5:55 AM 19.0 °F 5.6 °F 12.9 °F 77% 30.38 in 10.0 mi NW 13.8 mph - N/A   Partly Cloudy
6:55 AM 18.0 °F 4.8 °F 12.9 °F 81% 30.40 in 10.0 mi NW 12.7 mph - N/A   Clear
7:55 AM 19.9 °F 6.2 °F 12.9 °F 74% 30.42 in 10.0 mi NNW 15.0 mph - N/A   Partly Cloudy
8:55 AM 24.1 °F 10.1 °F 14.0 °F 65% 30.42 in 10.0 mi NNW 18.4 mph - N/A   Partly Cloudy
9:55 AM 27.0 °F 14.7 °F 12.9 °F 56% 30.42 in 10.0 mi NW 16.1 mph - N/A   Clear
10:55 AM 28.0 °F 16.1 °F 10.9 °F 49% 30.43 in 10.0 mi NW 16.1 mph - N/A   Scattered Clouds
11:55 AM 33.1 °F 21.9 °F 12.9 °F 43% 30.41 in 10.0 mi NW 18.4 mph 27.6 mph N/A   Mostly Cloudy
12:55 PM 30.9 °F 20.2 °F 12.0 °F 46% 30.40 in 10.0 mi North 15.0 mph - N/A   Overcast
1:55 PM 32.0 °F 20.8 °F 10.9 °F 42% 30.40 in 10.0 mi North 17.3 mph 23.0 mph N/A   Overcast
2:55 PM 32.0 °F 21.6 °F 10.9 °F 42% 30.39 in 10.0 mi North 15.0 mph - N/A   Mostly Cloudy
3:55 PM 33.1 °F 24.4 °F 10.0 °F 38% 30.38 in 10.0 mi NNW 11.5 mph - N/A   Partly Cloudy
4:55 PM 28.9 °F 25.2 °F 10.9 °F 47% 30.38 in 10.0 mi NNE 3.5 mph - N/A   Clear
5:55 PM 25.0 °F - 12.0 °F 58% 30.36 in 10.0 mi Calm Calm - N/A   Clear
6:55 PM 24.1 °F - 10.9 °F 57% 30.35 in 10.0 mi Calm Calm - N/A   Clear
7:55 PM 21.0 °F - 12.0 °F 68% 30.32 in 10.0 mi Calm Calm - N/A   Clear
8:55 PM 25.0 °F 20.7 °F 12.0 °F 58% 30.29 in 10.0 mi West 3.5 mph - N/A   Clear
9:55 PM 26.1 °F 18.4 °F 14.0 °F 60% 30.25 in 10.0 mi SW 6.9 mph - N/A   Mostly Cloudy
10:55 PM 25.0 °F 19.3 °F 16.0 °F 69% 30.22 in 10.0 mi WSW 4.6 mph - N/A   Mostly Cloudy
11:55 PM 27.0 °F - 16.0 °F 63% 30.18 in 10.0 mi Calm Calm - N/A   Overcast